| time (UTC) | temp C | wind direction | speed KPH | gust KPH | rain 1hr cm | rain 24hr cm | rain mn cm | humidity % | barometer mb |
| 20260510005548 | 13 | 210 | 0.0 | 8.0 | 0.00 | 0.10 | 0.10 | 39 | 1011.9 |
| 20260510005047 | 13 | 155 | 0.0 | 12.9 | 0.00 | 0.10 | 0.10 | 36 | 1011.8 |
| 20260510004547 | 13 | 304 | 0.0 | 12.9 | 0.00 | 0.10 | 0.10 | 38 | 1011.7 |
| 20260510004319 | 13 | 122 | 0.0 | 6.4 | 0.00 | 0.10 | 0.10 | 38 | 1011.7 |
| 20260510003818 | 14 | 136 | 1.6 | 6.4 | 0.00 | 0.10 | 0.10 | 37 | 1011.6 |
| 20260510003318 | 14 | 288 | 1.6 | 6.4 | 0.00 | 0.10 | 0.10 | 35 | 1011.6 |
| 20260510002547 | 15 | 0 | 1.6 | 9.7 | 0.00 | 0.10 | 0.10 | 36 | 1011.5 |
| 20260510002047 | 15 | 158 | 1.6 | 9.7 | 0.00 | 0.10 | 0.10 | 35 | 1011.4 |
| 20260510001547 | 15 | 124 | 1.6 | 8.0 | 0.00 | 0.10 | 0.10 | 35 | 1011.5 |
| 20260510001047 | 15 | 49 | 1.6 | 11.3 | 0.00 | 0.10 | 0.10 | 34 | 1011.4 |
| 20260510000547 | 15 | 141 | 1.6 | 11.3 | 0.00 | 0.10 | 0.10 | 33 | 1011.2 |
| 20260510000319 | 15 | 106 | 1.6 | 11.3 | 0.00 | 0.10 | 0.10 | 33 | 1011.1 |
| 20260509235543 | 15 | 4 | 1.6 | 9.7 | 0.00 | 0.10 | 0.10 | 31 | 1011.2 |
| 20260509235036 | 16 | 80 | 1.6 | 9.7 | 0.00 | 0.10 | 0.10 | 30 | 1011.1 |
| 20260509234531 | 16 | 318 | 0.0 | 6.4 | 0.00 | 0.10 | 0.10 | 30 | 1011.1 |
| 20260509234255 | 16 | 5 | 0.0 | 9.7 | 0.00 | 0.10 | 0.10 | 31 | 1011.0 |
| 20260509233518 | 16 | 13 | 1.6 | 9.7 | 0.00 | 0.10 | 0.10 | 29 | 1011.0 |
| 20260509233244 | 16 | 23 | 1.6 | 6.4 | 0.00 | 0.10 | 0.10 | 29 | 1010.9 |
| 20260509232506 | 16 | 41 | 1.6 | 6.4 | 0.00 | 0.10 | 0.10 | 29 | 1010.9 |
| 20260509232232 | 16 | 66 | 1.6 | 6.4 | 0.00 | 0.10 | 0.10 | 33 | 1010.8 |
| 20260509231457 | 16 | 7 | 1.6 | 9.7 | 0.00 | 0.10 | 0.10 | 30 | 1010.7 |
| 20260509231451 | 16 | 97 | 1.6 | 9.7 | 0.00 | 0.10 | 0.10 | 31 | 1010.7 |
| 20260509230442 | 16 | 5 | 1.6 | 16.1 | 0.00 | 0.10 | 0.10 | 32 | 1010.8 |
| 20260509225936 | 17 | 309 | 1.6 | 16.1 | 0.00 | 0.10 | 0.10 | 31 | 1010.5 |
| 20260509225430 | 16 | 351 | 1.6 | 9.7 | 0.00 | 0.10 | 0.10 | 31 | 1010.7 |
| 20260509224923 | 16 | 339 | 1.6 | 9.7 | 0.00 | 0.10 | 0.10 | 29 | 1010.6 |
| 20260509224418 | 17 | 224 | 1.6 | 9.7 | 0.00 | 0.10 | 0.10 | 29 | 1010.7 |
| 20260509223912 | 16 | 239 | 1.6 | 8.0 | 0.00 | 0.10 | 0.10 | 33 | 1010.5 |
| 20260509223407 | 16 | 22 | 1.6 | 9.7 | 0.00 | 0.10 | 0.10 | 31 | 1010.5 |
| 20260509222900 | 16 | 125 | 1.6 | 9.7 | 0.00 | 0.10 | 0.10 | 32 | 1010.5 |
| 20260509222353 | 17 | 110 | 1.6 | 9.7 | 0.00 | 0.10 | 0.10 | 29 | 1010.5 |
| 20260509221848 | 17 | 117 | 1.6 | 9.7 | 0.00 | 0.10 | 0.10 | 32 | 1010.5 |
| 20260509221613 | 17 | 25 | 1.6 | 12.9 | 0.00 | 0.10 | 0.10 | 32 | 1010.5 |
| 20260509220835 | 17 | 120 | 1.6 | 12.9 | 0.00 | 0.10 | 0.10 | 34 | 1010.4 |
| 20260509220330 | 17 | 27 | 1.6 | 9.7 | 0.00 | 0.10 | 0.10 | 32 | 1010.4 |
| 20260509215824 | 17 | 224 | 1.6 | 8.0 | 0.00 | 0.10 | 0.10 | 35 | 1010.2 |
| 20260509215318 | 17 | 126 | 1.6 | 8.0 | 0.00 | 0.10 | 0.10 | 31 | 1010.3 |
| 20260509214812 | 17 | 160 | 3.2 | 11.3 | 0.00 | 0.10 | 0.10 | 37 | 1010.3 |
| 20260509214305 | 17 | 54 | 3.2 | 11.3 | 0.00 | 0.10 | 0.10 | 31 | 1010.3 |
| 20260509213759 | 17 | 139 | 1.6 | 8.0 | 0.00 | 0.10 | 0.10 | 31 | 1010.2 |
| 20260509213255 | 17 | 169 | 1.6 | 8.0 | 0.00 | 0.10 | 0.10 | 33 | 1010.2 |
| 20260509213250 | 17 | 4 | 1.6 | 9.7 | 0.00 | 0.10 | 0.10 | 30 | 1010.2 |
| 20260509212242 | 17 | 333 | 1.6 | 9.7 | 0.00 | 0.10 | 0.10 | 29 | 1010.1 |
| 20260509211735 | 18 | 1 | 1.6 | 9.7 | 0.00 | 0.10 | 0.10 | 30 | 1010.1 |
| 20260509211230 | 17 | 166 | 1.6 | 9.7 | 0.00 | 0.10 | 0.10 | 30 | 1010.1 |
| 20260509210724 | 17 | 259 | 1.6 | 12.9 | 0.00 | 0.10 | 0.10 | 32 | 1010.1 |
| 20260509210218 | 17 | 5 | 1.6 | 12.9 | 0.00 | 0.10 | 0.10 | 32 | 1010.0 |
| 20260509205711 | 17 | 100 | 1.6 | 12.9 | 0.00 | 0.10 | 0.10 | 31 | 1010.1 |
| 20260509205206 | 16 | 139 | 3.2 | 12.9 | 0.00 | 0.10 | 0.10 | 31 | 1009.9 |
| 20260509204702 | 17 | 345 | 1.6 | 11.3 | 0.00 | 0.10 | 0.10 | 30 | 1009.8 |
| 20260509204657 | 16 | 13 | 1.6 | 14.5 | 0.00 | 0.10 | 0.10 | 31 | 1009.9 |
| 20260509203918 | 17 | 162 | 1.6 | 14.5 | 0.00 | 0.10 | 0.10 | 31 | 1009.9 |
| 20260509203142 | 17 | 347 | 1.6 | 9.7 | 0.00 | 0.10 | 0.10 | 33 | 1009.8 |
| 20260509202636 | 17 | 333 | 1.6 | 9.7 | 0.00 | 0.10 | 0.10 | 32 | 1009.8 |
| 20260509202130 | 17 | 5 | 1.6 | 9.7 | 0.00 | 0.10 | 0.10 | 34 | 1009.7 |
| 20260509201624 | 16 | 329 | 1.6 | 6.4 | 0.00 | 0.10 | 0.10 | 35 | 1009.8 |
| 20260509201118 | 16 | 323 | 1.6 | 14.5 | 0.00 | 0.10 | 0.10 | 31 | 1009.6 |
| 20260509200612 | 16 | 351 | 3.2 | 14.5 | 0.00 | 0.10 | 0.10 | 34 | 1009.7 |
| 20260509200105 | 16 | 32 | 4.8 | 12.9 | 0.00 | 0.10 | 0.10 | 31 | 1009.7 |
| 20260509195600 | 17 | 149 | 4.8 | 14.5 | 0.00 | 0.10 | 0.10 | 31 | 1009.7 |
| 20260509195054 | 17 | 195 | 3.2 | 14.5 | 0.00 | 0.10 | 0.10 | 36 | 1009.5 |
| 20260509194548 | 16 | 162 | 1.6 | 11.3 | 0.00 | 0.10 | 0.10 | 38 | 1009.6 |
| 20260509194041 | 16 | 7 | 1.6 | 9.7 | 0.00 | 0.10 | 0.10 | 32 | 1009.5 |
| 20260509193536 | 17 | 89 | 1.6 | 9.7 | 0.00 | 0.10 | 0.10 | 33 | 1009.5 |
| 20260509193030 | 16 | 276 | 1.6 | 9.7 | 0.00 | 0.10 | 0.10 | 36 | 1009.2 |
| 20260509192524 | 16 | 333 | 1.6 | 9.7 | 0.00 | 0.10 | 0.10 | 38 | 1009.5 |
| 20260509192018 | 16 | 1 | 4.8 | 14.5 | 0.00 | 0.10 | 0.10 | 33 | 1009.2 |
| 20260509191515 | 16 | 333 | 3.2 | 14.5 | 0.00 | 0.10 | 0.10 | 33 | 1009.2 |
| 20260509191507 | 16 | 345 | 3.2 | 12.9 | 0.00 | 0.10 | 0.10 | 35 | 1009.1 |
| 20260509190731 | 16 | 113 | 3.2 | 12.9 | 0.00 | 0.10 | 0.10 | 38 | 1009.1 |
| 20260509185953 | 16 | 158 | 1.6 | 14.5 | 0.00 | 0.10 | 0.10 | 43 | 1009.2 |
| 20260509185448 | 16 | 104 | 3.2 | 14.5 | 0.00 | 0.10 | 0.10 | 34 | 1009.1 |
| 20260509184942 | 16 | 29 | 3.2 | 12.9 | 0.00 | 0.10 | 0.10 | 34 | 1009.0 |
| 20260509184436 | 16 | 207 | 1.6 | 12.9 | 0.00 | 0.10 | 0.10 | 36 | 1009.0 |
| 20260509183930 | 16 | 153 | 1.6 | 9.7 | 0.00 | 0.10 | 0.10 | 37 | 1008.9 |
| 20260509183424 | 16 | 339 | 1.6 | 11.3 | 0.00 | 0.10 | 0.10 | 36 | 1008.9 |
| 20260509182918 | 16 | 335 | 1.6 | 14.5 | 0.00 | 0.10 | 0.10 | 37 | 1008.9 |
| 20260509182643 | 16 | 8 | 3.2 | 14.5 | 0.00 | 0.10 | 0.10 | 35 | 1008.8 |
| 20260509181906 | 16 | 0 | 4.8 | 14.5 | 0.00 | 0.10 | 0.10 | 39 | 1008.9 |
| 20260509181632 | 16 | 221 | 3.2 | 14.5 | 0.00 | 0.10 | 0.10 | 41 | 1008.6 |
| 20260509180854 | 16 | 302 | 1.6 | 12.9 | 0.00 | 0.10 | 0.10 | 41 | 1008.8 |
| 20260509180347 | 15 | 347 | 1.6 | 8.0 | 0.00 | 0.10 | 0.10 | 42 | 1008.9 |
| 20260509175842 | 15 | 345 | 3.2 | 9.7 | 0.00 | 0.10 | 0.10 | 43 | 1008.9 |
| 20260509175336 | 15 | 78 | 3.2 | 11.3 | 0.00 | 0.10 | 0.10 | 39 | 1008.9 |
| 20260509175102 | 15 | 0 | 3.2 | 12.9 | 0.00 | 0.10 | 0.10 | 41 | 1008.8 |
| 20260509174324 | 15 | 122 | 1.6 | 12.9 | 0.00 | 0.10 | 0.10 | 44 | 1008.6 |
| 20260509173818 | 15 | 330 | 1.6 | 11.3 | 0.00 | 0.10 | 0.10 | 44 | 1008.7 |
| 20260509173312 | 15 | 197 | 1.6 | 11.3 | 0.00 | 0.10 | 0.10 | 46 | 1008.6 |
| 20260509173043 | 15 | 86 | 1.6 | 11.3 | 0.00 | 0.10 | 0.10 | 43 | 1008.6 |
| 20260509172545 | 15 | 17 | 1.6 | 11.3 | 0.00 | 0.10 | 0.10 | 40 | 1008.6 |
| 20260509171813 | 15 | 343 | 1.6 | 9.7 | 0.00 | 0.10 | 0.10 | 49 | 1008.6 |
| 20260509171312 | 14 | 149 | 1.6 | 8.0 | 0.00 | 0.10 | 0.10 | 48 | 1008.5 |
| 20260509170811 | 14 | 302 | 1.6 | 9.7 | 0.00 | 0.10 | 0.10 | 50 | 1008.5 |
| 20260509170308 | 14 | 80 | 1.6 | 12.9 | 0.00 | 0.10 | 0.10 | 48 | 1008.3 |
| 20260509165809 | 13 | 106 | 1.6 | 12.9 | 0.00 | 0.10 | 0.10 | 49 | 1008.3 |
| 20260509165540 | 14 | 339 | 1.6 | 9.7 | 0.00 | 0.10 | 0.10 | 46 | 1008.3 |
| 20260509164809 | 14 | 352 | 1.6 | 8.0 | 0.00 | 0.10 | 0.10 | 45 | 1008.3 |
| 20260509164542 | 13 | 22 | 1.6 | 6.4 | 0.00 | 0.10 | 0.10 | 50 | 1008.3 |
| 20260509163810 | 13 | 25 | 1.6 | 6.4 | 0.00 | 0.10 | 0.10 | 45 | 1008.3 |
| 20260509163309 | 13 | 27 | 1.6 | 8.0 | 0.00 | 0.10 | 0.10 | 47 | 1008.2 |
| 20260509162811 | 13 | 14 | 1.6 | 8.0 | 0.00 | 0.10 | 0.10 | 50 | 1008.1 |
| 20260509162312 | 13 | 43 | 1.6 | 9.7 | 0.00 | 0.10 | 0.10 | 48 | 1008.1 |
| 20260509161811 | 13 | 340 | 1.6 | 9.7 | 0.00 | 0.10 | 0.10 | 54 | 1008.0 |
| 20260509161544 | 12 | 135 | 1.6 | 8.0 | 0.00 | 0.10 | 0.10 | 52 | 1008.0 |
| 20260509160807 | 12 | 66 | 1.6 | 9.7 | 0.00 | 0.10 | 0.10 | 53 | 1008.0 |
| 20260509160532 | 13 | 4 | 1.6 | 9.7 | 0.00 | 0.10 | 0.10 | 53 | 1007.8 |
| 20260509155754 | 13 | 351 | 1.6 | 8.0 | 0.00 | 0.10 | 0.10 | 50 | 1007.7 |
| 20260509155249 | 13 | 91 | 1.6 | 8.0 | 0.00 | 0.10 | 0.10 | 57 | 1007.7 |
| 20260509154742 | 13 | 131 | 1.6 | 8.0 | 0.00 | 0.10 | 0.10 | 53 | 1007.6 |
| 20260509154237 | 13 | 311 | 1.6 | 6.4 | 0.00 | 0.10 | 0.10 | 56 | 1007.5 |
| 20260509154001 | 13 | 105 | 1.6 | 9.7 | 0.00 | 0.10 | 0.10 | 54 | 1007.4 |
| 20260509153458 | 13 | 356 | 1.6 | 12.9 | 0.00 | 0.10 | 0.10 | 52 | 1007.4 |
| 20260509152719 | 13 | 9 | 1.6 | 12.9 | 0.00 | 0.10 | 0.10 | 55 | 1007.3 |
| 20260509152213 | 13 | 133 | 1.6 | 8.0 | 0.00 | 0.10 | 0.10 | 59 | 1007.3 |
| 20260509151707 | 13 | 325 | 1.6 | 8.0 | 0.00 | 0.10 | 0.10 | 60 | 1007.2 |
| 20260509151438 | 12 | 105 | 1.6 | 6.4 | 0.00 | 0.10 | 0.10 | 62 | 1007.0 |
| 20260509151201 | 12 | 342 | 1.6 | 6.4 | 0.00 | 0.10 | 0.10 | 63 | 1007.0 |
| 20260509150148 | 12 | 27 | 1.6 | 11.3 | 0.00 | 0.10 | 0.10 | 62 | 1006.9 |
| 20260509145642 | 12 | 181 | 1.6 | 11.3 | 0.00 | 0.10 | 0.10 | 60 | 1006.9 |
| 20260509145137 | 12 | 58 | 1.6 | 6.4 | 0.00 | 0.10 | 0.10 | 64 | 1006.7 |
| 20260509144631 | 11 | 345 | 1.6 | 6.4 | 0.00 | 0.10 | 0.10 | 64 | 1006.7 |
| 20260509144355 | 11 | 356 | 1.6 | 8.0 | 0.00 | 0.10 | 0.10 | 65 | 1006.7 |
| 20260509143850 | 11 | 345 | 1.6 | 8.0 | 0.00 | 0.10 | 0.10 | 66 | 1006.6 |
| 20260509143113 | 11 | 20 | 1.6 | 6.4 | 0.00 | 0.10 | 0.10 | 68 | 1006.6 |
| 20260509142607 | 11 | 345 | 1.6 | 9.7 | 0.00 | 0.10 | 0.10 | 71 | 1006.5 |
| 20260509142100 | 10 | 356 | 3.2 | 9.7 | 0.00 | 0.10 | 0.10 | 71 | 1006.5 |
| 20260509141825 | 10 | 9 | 3.2 | 11.3 | 0.00 | 0.10 | 0.10 | 72 | 1006.4 |
| 20260509141046 | 10 | 356 | 3.2 | 12.9 | 0.00 | 0.10 | 0.10 | 75 | 1006.4 |
| 20260509140540 | 10 | 347 | 3.2 | 12.9 | 0.00 | 0.10 | 0.10 | 77 | 1006.4 |
| 20260509140039 | 10 | 13 | 3.2 | 11.3 | 0.00 | 0.10 | 0.10 | 80 | 1006.4 |
| 20260509135538 | 9 | 356 | 1.6 | 9.7 | 0.00 | 0.10 | 0.10 | 84 | 1006.3 |
| 20260509135041 | 9 | 13 | 1.6 | 6.4 | 0.00 | 0.10 | 0.10 | 91 | 1006.2 |
| 20260509134539 | 8 | 347 | 1.6 | 6.4 | 0.00 | 0.10 | 0.10 | 94 | 1006.2 |
| 20260509134039 | 8 | 352 | 1.6 | 6.4 | 0.00 | 0.10 | 0.10 | 96 | 1006.1 |
| 20260509133540 | 8 | 337 | 1.6 | 6.4 | 0.00 | 0.10 | 0.10 | 96 | 1006.1 |
| 20260509133039 | 8 | 74 | 0.0 | 6.4 | 0.00 | 0.10 | 0.10 | 96 | 1006.0 |
| 20260509132808 | 8 | 23 | 0.0 | 3.2 | 0.00 | 0.10 | 0.10 | 96 | 1006.0 |
| 20260509132659 | 8 | 32 | 0.0 | 4.8 | 0.00 | 0.10 | 0.10 | 96 | 1005.9 |
| 20260509131534 | 8 | 105 | 0.0 | 4.8 | 0.00 | 0.10 | 0.10 | 96 | 1005.8 |
| 20260509131032 | 8 | 110 | 0.0 | 4.8 | 0.00 | 0.10 | 0.10 | 96 | 1005.7 |
| 20260509130530 | 8 | 107 | 0.0 | 1.6 | 0.00 | 0.10 | 0.10 | 97 | 1005.5 |
| 20260509130032 | 8 | 351 | 0.0 | 1.6 | 0.00 | 0.10 | 0.10 | 97 | 1005.4 |
| 20260509125529 | 8 | 107 | 0.0 | 1.6 | 0.00 | 0.10 | 0.10 | 96 | 1005.3 |
| 20260509125031 | 8 | 127 | 0.0 | 1.6 | 0.00 | 0.10 | 0.10 | 96 | 1005.3 |
| 20260509124530 | 8 | 56 | 0.0 | 1.6 | 0.00 | 0.10 | 0.10 | 96 | 1005.2 |
| 20260509124028 | 8 | 100 | 0.0 | 1.6 | 0.00 | 0.10 | 0.10 | 97 | 1005.2 |
| 20260509123528 | 8 | 205 | 0.0 | 3.2 | 0.00 | 0.10 | 0.10 | 97 | 1005.2 |
| 20260509123022 | 8 | 293 | 0.0 | 3.2 | 0.00 | 0.10 | 0.10 | 97 | 1005.1 |
| 20260509122516 | 8 | 23 | 0.0 | 1.6 | 0.00 | 0.10 | 0.10 | 97 | 1005.0 |
| 20260509122009 | 8 | 75 | 0.0 | 1.6 | 0.00 | 0.10 | 0.10 | 97 | 1004.8 |
| 20260509121504 | 8 | 116 | 0.0 | 3.2 | 0.00 | 0.10 | 0.10 | 96 | 1004.8 |
| 20260509120958 | 7 | 75 | 0.0 | 3.2 | 0.00 | 0.10 | 0.10 | 96 | 1004.7 |
| 20260509120454 | 7 | 114 | 0.0 | 4.8 | 0.00 | 0.10 | 0.10 | 96 | 1004.7 |
| 20260509115954 | 7 | 131 | 0.0 | 4.8 | 0.00 | 0.10 | 0.10 | 96 | 1004.6 |
| 20260509115723 | 8 | 160 | 0.0 | 4.8 | 0.00 | 0.10 | 0.10 | 96 | 1004.5 |
| 20260509115227 | 8 | 142 | 0.0 | 3.2 | 0.00 | 0.10 | 0.10 | 96 | 1004.4 |
| 20260509114454 | 8 | 162 | 0.0 | 3.2 | 0.00 | 0.10 | 0.10 | 96 | 1004.2 |
| 20260509113953 | 8 | 96 | 0.0 | 1.6 | 0.00 | 0.10 | 0.10 | 96 | 1004.2 |
| 20260509113454 | 7 | 155 | 0.0 | 1.6 | 0.00 | 0.10 | 0.10 | 96 | 1004.1 |
| 20260509112954 | 7 | 162 | 0.0 | 0.0 | 0.00 | 0.10 | 0.10 | 96 | 1004.0 |
| 20260509112457 | 7 | 162 | 0.0 | 0.0 | 0.03 | 0.10 | 0.10 | 96 | 1003.8 |
| 20260509112452 | 7 | 162 | 0.0 | 0.0 | 0.00 | 0.10 | 0.10 | 96 | 1003.9 |
| 20260509111454 | 7 | 162 | 0.0 | 0.0 | 0.03 | 0.10 | 0.10 | 95 | 1003.7 |
| 20260509110957 | 7 | 63 | 0.0 | 0.0 | 0.03 | 0.10 | 0.10 | 95 | 1003.5 |
| 20260509110451 | 7 | 62 | 0.0 | 0.0 | 0.05 | 0.10 | 0.10 | 95 | 1003.4 |
| 20260509105952 | 7 | 62 | 0.0 | 0.0 | 0.05 | 0.10 | 0.10 | 95 | 1003.3 |
| 20260509105452 | 8 | 64 | 0.0 | 0.0 | 0.05 | 0.10 | 0.10 | 95 | 1003.1 |
| 20260509105224 | 8 | 64 | 0.0 | 0.0 | 0.05 | 0.10 | 0.10 | 95 | 1003.1 |
| 20260509104451 | 8 | 63 | 0.0 | 0.0 | 0.05 | 0.10 | 0.10 | 95 | 1003.1 |
| 20260509103950 | 8 | 64 | 0.0 | 0.0 | 0.05 | 0.10 | 0.10 | 95 | 1003.1 |
| 20260509103452 | 8 | 63 | 0.0 | 0.0 | 0.08 | 0.10 | 0.10 | 95 | 1003.0 |
| 20260509102950 | 8 | 64 | 0.0 | 0.0 | 0.08 | 0.10 | 0.10 | 94 | 1002.9 |
| 20260509102450 | 8 | 63 | 0.0 | 0.0 | 0.08 | 0.10 | 0.10 | 94 | 1002.6 |
| 20260509101952 | 8 | 64 | 0.0 | 0.0 | 0.08 | 0.08 | 0.08 | 94 | 1003.0 |
| 20260509101720 | 8 | 315 | 0.0 | 0.0 | 0.08 | 0.08 | 0.08 | 94 | 1002.6 |
| 20260509100948 | 8 | 315 | 0.0 | 0.0 | 0.05 | 0.05 | 0.05 | 93 | 1002.7 |
| 20260509100722 | 8 | 314 | 0.0 | 0.0 | 0.05 | 0.05 | 0.05 | 93 | 1002.8 |
| 20260509095949 | 8 | 315 | 0.0 | 0.0 | 0.05 | 0.05 | 0.05 | 92 | 1002.7 |
| 20260509095449 | 8 | 314 | 0.0 | 0.0 | 0.05 | 0.05 | 0.05 | 92 | 1002.7 |
| 20260509094948 | 8 | 315 | 0.0 | 1.6 | 0.05 | 0.05 | 0.05 | 91 | 1002.6 |
| 20260509094719 | 8 | 315 | 0.0 | 1.6 | 0.05 | 0.05 | 0.05 | 90 | 1002.6 |
| 20260509093950 | 9 | 136 | 0.0 | 1.6 | 0.05 | 0.05 | 0.05 | 89 | 1002.7 |
| 20260509093450 | 9 | 140 | 0.0 | 1.6 | 0.03 | 0.03 | 0.03 | 86 | 1002.9 |
| 20260509093215 | 10 | 57 | 0.0 | 1.6 | 0.03 | 0.03 | 0.03 | 84 | 1003.0 |
| 20260509092445 | 10 | 68 | 0.0 | 6.4 | 0.03 | 0.03 | 0.03 | 82 | 1003.1 |
| 20260509091945 | 10 | 79 | 0.0 | 6.4 | 0.00 | 0.00 | 0.00 | 77 | 1003.2 |
| 20260509091445 | 11 | 1 | 0.0 | 3.2 | 0.00 | 0.00 | 0.00 | 73 | 1003.2 |
| 20260509090945 | 11 | 351 | 0.0 | 1.6 | 0.00 | 0.00 | 0.00 | 70 | 1003.1 |
| 20260509090446 | 11 | 16 | 0.0 | 1.6 | 0.00 | 0.00 | 0.00 | 67 | 1003.1 |
| 20260509085944 | 11 | 15 | 0.0 | 1.6 | 0.00 | 0.00 | 0.00 | 65 | 1002.8 |
| 20260509085444 | 11 | 15 | 0.0 | 1.6 | 0.00 | 0.00 | 0.00 | 64 | 1002.5 |
| 20260509084946 | 11 | 17 | 0.0 | 1.6 | 0.00 | 0.00 | 0.00 | 62 | 1002.6 |
| 20260509084442 | 11 | 18 | 0.0 | 3.2 | 0.00 | 0.00 | 0.00 | 62 | 1002.7 |
| 20260509083941 | 11 | 338 | 0.0 | 3.2 | 0.00 | 0.00 | 0.00 | 61 | 1002.8 |
| 20260509083712 | 11 | 50 | 0.0 | 3.2 | 0.00 | 0.00 | 0.00 | 60 | 1002.7 |
| 20260509082940 | 11 | 16 | 1.6 | 11.3 | 0.00 | 0.00 | 0.00 | 59 | 1002.7 |
| 20260509082440 | 11 | 25 | 1.6 | 11.3 | 0.00 | 0.00 | 0.00 | 59 | 1002.7 |
| 20260509081940 | 11 | 6 | 1.6 | 9.7 | 0.00 | 0.00 | 0.00 | 59 | 1002.7 |
| 20260509081442 | 11 | 39 | 1.6 | 9.7 | 0.00 | 0.00 | 0.00 | 60 | 1002.6 |
| 20260509080942 | 10 | 30 | 0.0 | 4.8 | 0.00 | 0.00 | 0.00 | 60 | 1002.6 |
| 20260509080442 | 10 | 321 | 0.0 | 6.4 | 0.00 | 0.00 | 0.00 | 60 | 1002.5 |
| 20260509075940 | 10 | 118 | 0.0 | 6.4 | 0.00 | 0.00 | 0.00 | 61 | 1002.5 |
| 20260509075440 | 9 | 187 | 0.0 | 1.6 | 0.00 | 0.00 | 0.00 | 61 | 1002.5 |
| 20260509074950 | 9 | 135 | 0.0 | 3.2 | 0.00 | 0.00 | 0.00 | 60 | 1002.4 |
| 20260509074941 | 9 | 136 | 0.0 | 1.6 | 0.00 | 0.00 | 0.00 | 62 | 1002.5 |
| 20260509073942 | 9 | 205 | 0.0 | 3.2 | 0.00 | 0.00 | 0.00 | 59 | 1002.2 |
| 20260509073440 | 9 | 126 | 0.0 | 3.2 | 0.00 | 0.00 | 0.00 | 61 | 1002.2 |
| 20260509073214 | 9 | 147 | 0.0 | 0.0 | 0.00 | 0.00 | 0.00 | 66 | 1002.0 |
| 20260509072447 | 9 | 147 | 0.0 | 0.0 | 0.00 | 0.00 | 0.00 | 61 | 1002.1 |
| 20260509072443 | 9 | 146 | 0.0 | 0.0 | 0.00 | 0.00 | 0.00 | 65 | 1002.0 |
| 20260509071444 | 9 | 147 | 0.0 | 0.0 | 0.00 | 0.00 | 0.00 | 61 | 1002.1 |
| 20260509070940 | 8 | 147 | 0.0 | 0.0 | 0.00 | 0.00 | 0.00 | 61 | 1002.0 |
| 20260509070442 | 8 | 146 | 0.0 | 0.0 | 0.00 | 0.00 | 0.00 | 63 | 1002.1 |
| 20260509065941 | 9 | 146 | 0.0 | 0.0 | 0.00 | 0.00 | 0.00 | 61 | 1002.1 |
| 20260509065441 | 9 | 147 | 0.0 | 0.0 | 0.00 | 0.00 | 0.00 | 59 | 1002.1 |
| 20260509064940 | 9 | 146 | 0.0 | 0.0 | 0.00 | 0.00 | 0.00 | 56 | 1002.2 |
| 20260509064713 | 9 | 146 | 0.0 | 0.0 | 0.00 | 0.00 | 0.00 | 55 | 1002.1 |
| 20260509063942 | 8 | 147 | 0.0 | 0.0 | 0.00 | 0.00 | 0.00 | 55 | 1002.2 |
| 20260509063441 | 8 | 146 | 0.0 | 0.0 | 0.00 | 0.00 | 0.00 | 57 | 1002.1 |
| 20260509062934 | 8 | 146 | 0.0 | 0.0 | 0.00 | 0.00 | 0.00 | 58 | 1002.1 |
| 20260509062428 | 8 | 147 | 0.0 | 0.0 | 0.00 | 0.00 | 0.00 | 58 | 1001.8 |
| 20260509061927 | 8 | 146 | 0.0 | 1.6 | 0.00 | 0.00 | 0.00 | 59 | 1002.1 |
| 20260509061429 | 8 | 146 | 0.0 | 1.6 | 0.00 | 0.00 | 0.00 | 59 | 1002.1 |
| 20260509060926 | 10 | 103 | 0.0 | 0.0 | 0.00 | 0.00 | 0.00 | 55 | 1002.1 |
| 20260509060428 | 10 | 103 | 0.0 | 0.0 | 0.00 | 0.00 | 0.00 | 50 | 1002.0 |
| 20260509055926 | 10 | 103 | 0.0 | 0.0 | 0.00 | 0.00 | 0.00 | 50 | 1001.9 |
| 20260509055429 | 10 | 103 | 0.0 | 0.0 | 0.00 | 0.00 | 0.00 | 49 | 1001.9 |
| 20260509055155 | 10 | 103 | 0.0 | 0.0 | 0.00 | 0.00 | 0.00 | 50 | 1002.0 |
| 20260509054420 | 10 | 103 | 0.0 | 0.0 | 0.00 | 0.00 | 0.00 | 50 | 1002.1 |
| 20260509053918 | 9 | 103 | 0.0 | 0.0 | 0.00 | 0.00 | 0.00 | 51 | 1002.2 |
| 20260509053415 | 9 | 103 | 0.0 | 0.0 | 0.00 | 0.00 | 0.00 | 52 | 1002.3 |
| 20260509052913 | 8 | 103 | 0.0 | 0.0 | 0.00 | 0.00 | 0.00 | 53 | 1002.4 |
| 20260509052410 | 9 | 103 | 0.0 | 0.0 | 0.00 | 0.00 | 0.00 | 53 | 1002.4 |
| 20260509052141 | 9 | 103 | 0.0 | 0.0 | 0.00 | 0.00 | 0.00 | 52 | 1002.5 |
| 20260509051409 | 9 | 103 | 0.0 | 0.0 | 0.00 | 0.00 | 0.00 | 51 | 1002.6 |
| 20260509050910 | 9 | 103 | 0.0 | 0.0 | 0.00 | 0.00 | 0.00 | 50 | 1002.5 |
| 20260509050406 | 9 | 103 | 0.0 | 0.0 | 0.00 | 0.00 | 0.00 | 50 | 1002.5 |
| 20260509045909 | 9 | 103 | 0.0 | 1.6 | 0.00 | 0.00 | 0.00 | 51 | 1002.4 |
| 20260509045408 | 8 | 103 | 0.0 | 0.0 | 0.00 | 0.00 | 0.00 | 51 | 1002.8 |
| 20260509045403 | 8 | 103 | 0.0 | 1.6 | 0.00 | 0.00 | 0.00 | 51 | 1002.6 |
| 20260509044350 | 8 | 103 | 0.0 | 0.0 | 0.00 | 0.00 | 0.00 | 51 | 1002.7 |
| 20260509043845 | 9 | 103 | 0.0 | 0.0 | 0.00 | 0.00 | 0.00 | 50 | 1002.8 |
| 20260509043339 | 9 | 103 | 0.0 | 0.0 | 0.00 | 0.00 | 0.00 | 49 | 1002.8 |
| 20260509043103 | 10 | 103 | 0.0 | 0.0 | 0.00 | 0.00 | 0.00 | 49 | 1002.9 |
| 20260509042326 | 10 | 103 | 0.0 | 0.0 | 0.00 | 0.00 | 0.00 | 49 | 1002.9 |
| 20260509041821 | 10 | 103 | 0.0 | 0.0 | 0.00 | 0.00 | 0.00 | 49 | 1002.9 |
| 20260509041314 | 10 | 103 | 0.0 | 0.0 | 0.00 | 0.00 | 0.00 | 49 | 1002.9 |
| 20260509040809 | 10 | 103 | 0.0 | 0.0 | 0.00 | 0.00 | 0.00 | 47 | 1002.9 |
| 20260509040534 | 10 | 129 | 0.0 | 1.6 | 0.00 | 0.00 | 0.00 | 47 | 1003.1 |
| 20260509035756 | 10 | 129 | 0.0 | 1.6 | 0.00 | 0.00 | 0.00 | 46 | 1003.1 |
| 20260509035522 | 11 | 129 | 0.0 | 3.2 | 0.00 | 0.00 | 0.00 | 47 | 1003.1 |
| 20260509034745 | 11 | 113 | 0.0 | 3.2 | 0.00 | 0.00 | 0.00 | 46 | 1003.1 |
| 20260509034239 | 11 | 194 | 0.0 | 0.0 | 0.00 | 0.00 | 0.00 | 46 | 1003.1 |
| 20260509033733 | 11 | 194 | 0.0 | 1.6 | 0.00 | 0.00 | 0.00 | 45 | 1003.0 |
| 20260509033227 | 11 | 194 | 0.0 | 1.6 | 0.00 | 0.00 | 0.00 | 44 | 1003.0 |
| 20260509032721 | 12 | 110 | 0.0 | 1.6 | 0.00 | 0.00 | 0.00 | 44 | 1002.9 |
| 20260509032446 | 12 | 201 | 0.0 | 1.6 | 0.00 | 0.00 | 0.00 | 44 | 1002.9 |
| 20260509031708 | 12 | 149 | 0.0 | 3.2 | 0.00 | 0.00 | 0.00 | 42 | 1003.0 |
| 20260509031202 | 12 | 225 | 0.0 | 3.2 | 0.00 | 0.00 | 0.00 | 41 | 1002.8 |
| 20260509030656 | 13 | 197 | 0.0 | 8.0 | 0.00 | 0.00 | 0.00 | 40 | 1002.9 |
| 20260509030151 | 13 | 103 | 0.0 | 8.0 | 0.00 | 0.00 | 0.00 | 41 | 1002.8 |
| 20260509025916 | 13 | 165 | 0.0 | 4.8 | 0.00 | 0.00 | 0.00 | 40 | 1002.7 |
| 20260509025139 | 13 | 257 | 0.0 | 4.8 | 0.00 | 0.00 | 0.00 | 40 | 1002.7 |
| 20260509024633 | 13 | 100 | 0.0 | 6.4 | 0.00 | 0.00 | 0.00 | 40 | 1002.7 |
| 20260509024127 | 14 | 329 | 0.0 | 6.4 | 0.00 | 0.00 | 0.00 | 40 | 1002.7 |
| 20260509023620 | 14 | 180 | 0.0 | 4.8 | 0.00 | 0.00 | 0.00 | 39 | 1002.7 |
| 20260509023345 | 14 | 133 | 0.0 | 4.8 | 0.00 | 0.00 | 0.00 | 39 | 1002.6 |
| 20260509022608 | 15 | 100 | 0.0 | 4.8 | 0.00 | 0.00 | 0.00 | 38 | 1002.5 |
| 20260509022102 | 15 | 130 | 1.6 | 8.0 | 0.00 | 0.00 | 0.00 | 39 | 1002.4 |
| 20260509021556 | 15 | 115 | 1.6 | 9.7 | 0.00 | 0.00 | 0.00 | 37 | 1002.3 |
| 20260509021050 | 15 | 11 | 1.6 | 9.7 | 0.00 | 0.00 | 0.00 | 36 | 1002.2 |
| 20260509020542 | 16 | 74 | 1.6 | 12.9 | 0.00 | 0.00 | 0.00 | 37 | 1002.1 |
| 20260509020306 | 16 | 12 | 3.2 | 19.3 | 0.00 | 0.00 | 0.00 | 37 | 1002.0 |
| 20260509015534 | 16 | 172 | 1.6 | 19.3 | 0.00 | 0.00 | 0.00 | 37 | 1001.9 |
| 20260509015020 | 15 | 72 | 0.0 | 6.4 | 0.00 | 0.00 | 0.00 | 39 | 1001.8 |
| 20260509014514 | 16 | 120 | 0.0 | 9.7 | 0.00 | 0.00 | 0.00 | 39 | 1001.5 |
| 20260509014008 | 16 | 91 | 1.6 | 9.7 | 0.00 | 0.00 | 0.00 | 38 | 1001.5 |
| 20260509013502 | 16 | 139 | 1.6 | 8.0 | 0.00 | 0.00 | 0.00 | 37 | 1001.5 |
| 20260509012955 | 16 | 307 | 1.6 | 8.0 | 0.00 | 0.00 | 0.00 | 36 | 1001.3 |
| 20260509012450 | 16 | 131 | 0.0 | 8.0 | 0.00 | 0.00 | 0.00 | 35 | 1001.2 |
| 20260509011944 | 16 | 197 | 0.0 | 4.8 | 0.00 | 0.00 | 0.00 | 36 | 1001.2 |
| 20260509011708 | 16 | 194 | 0.0 | 3.2 | 0.00 | 0.00 | 0.00 | 35 | 1001.1 |
| 20260509011205 | 17 | 168 | 0.0 | 3.2 | 0.00 | 0.00 | 0.00 | 35 | 1001.0 |
| 20260509010656 | 17 | 191 | 0.0 | 3.2 | 0.00 | 0.00 | 0.00 | 34 | 1001.0 |
| 20260509005921 | 17 | 276 | 0.0 | 4.8 | 0.00 | 0.00 | 0.00 | 35 | 1000.9 |